SPIP

导读

SPIP是由比利时(BE)于2023年11月11日08:00发射的卫星。作为比利时空间领域探索的成果,该卫星承载着比利时在航天技术研发与空间观测领域的探索目标,依托欧洲空间合作框架推进相关任务,后续将在对应轨道开展既定科学或应用探测工作,为比利时乃至欧洲的空间科学研究积累数据,助力区域航天技术发展与空间认知提升。

基本信息
目录编号:
58298
目录名称:
SPIP
国际标识:
2023-174AU
轨道中心:
EARTH
卫星名称:
SPIP
卫星全名:
--
卫星状态:
在轨 (已飞行1028 天)
发射日期:
2023-11-11 UTC
国别 :
比利时 (BE)
星等 :
--
轨道信息
数据来源 国际轨道数据
星历时间: 2026-09-04T06:27:02+0800
8小时前
查看轨道信息
半长轴: 6859.219km
偏心率: 0.0007481
轨道倾角: 97.379°
近地点辐角 266.234°
升交点赤经 322.702°
平近点角 93.805°
近地点: 475.95km
远地点: 486.214km
周期: 94.226分钟
每日圈数: 15.282372
详细信息
使用方式:
暂无
2D轨道图
3D轨道图
轨道高度分析图
轨道倾角分析图
轨道综合分析图
查看轨道综合分析图
交会数据列表
事件ID 空间交会对象 最接近时刻(TCA) 交会距离 交会风险概率(CRP) 交会风险指数(CRI) 操作
CDM_260905-065005-819205-829821
SPIP (58298)
2026-09-05T
06:50:52+0000
0.842 km
远距离
4.332106E-5 中风险 0.68
CDM_260903-200705-829805-867322
SPIP (58298)
2026-09-03T
20:07:11+0000
0.934 km
远距离
3.351753E-5 中风险 0.66
CDM_260829-182305-829806-660622
SPIP (58298)
2026-08-29T
18:23:43+0000
1.306 km
极远距离
1.040151E-5 中风险 0.55
CDM_260904-102505-829806-762722
SPIP (58298)
2026-09-04T
10:25:13+0000
1.391 km
极远距离
7.699812E-6 低风险 0.53
CDM_260827-214005-690405-829823
SPIP (58298)
2026-08-27T
21:40:46+0000
1.640 km
极远距离
4.72052E-6 低风险 0.48
CDM_260903-201605-829806-212523
SPIP (58298)
2026-09-03T
20:16:40+0000
1.712 km
极远距离
3.959125E-6 低风险 0.47
CDM_260904-074405-829806-645622
SPIP (58298)
2026-09-04T
07:44:33+0000
1.590 km
极远距离
3.814169E-6 低风险 0.47
CDM_260903-235805-601005-829822
SPIP (58298)
2026-09-03T
23:58:32+0000
1.844 km
极远距离
3.480143E-6 低风险 0.46
CDM_260904-004805-692605-829823
SPIP (58298)
2026-09-04T
00:48:37+0000
2.164 km
极远距离
2.316679E-6 低风险 0.42
CDM_260905-054705-829805-940521
SPIP (58298)
2026-09-05T
05:47:03+0000
2.163 km
极远距离
2.297359E-6 低风险 0.42